Flag for Canada Weather past 2 weeks in Victoria, British Columbia, Canada

Now
57 °F

Broken clouds.


Feels Like: 55 °F
Forecast: 50 / 58 °F
Wind: 10 mph from Southeast

Location: Victoria Int. Airportb. C.

Current Time: Sep 3, 2015 at 3:03:20 PM

Latest Report: Sep 3, 2015 at 2:00 PM


Visibility: 30 mi

Pressure: 29.98 "Hg

Humidity: 77%

Dew point: 50 °F

Location of VictoriaLocation

Historic Weather in Victoria — Graph

°F

Victoria temperature yesterday

Maximum temperature yesterday: 59 °F (at 6:00 PM)
Minimum temperature yesterday: 48 °F (at 5:00 AM)
Average temperature yesterday: 54 °F

Past Weeks' High & Low Weather Summary

 TemperatureHumidityPressure
High77 °F (Aug 19, 4:00 PM)100% (Aug 28, 6:00 AM)30.13 "Hg (Aug 28, 6:00 AM)
Low45 °F (Sep 3, 4:00 AM)33% (Aug 24, 8:00 PM)29.40 "Hg (Aug 29, 11:00 AM)
Average61 °F73%29.90 "Hg
* Reported Aug 19 1:00 PM — Sep 3 1:00 PM, Victoria, Weather by CustomWeather, © 2015

Note: Actual official high and low records may vary slightly from our data, if they occured in-between our weather recording intervals... More about our weather records

Advertising

Victoria weather history for previous 24 hours

 ConditionsComfort  
Time TempWeatherWind HumidityBarometerVisibility
1:00 PM
Thu, Sep 3
57 °FPartly sunny.14 mph77%29.98 "Hg30 mi
12:00 PM55 °FPartly sunny.8 mph82%29.99 "Hg30 mi
11:00 AM57 °FPartly sunny.7 mph82%30.00 "Hg30 mi
10:00 AM54 °FPartly sunny.2 mph82%30.00 "Hg30 mi
9:53 AM54 °FPartly sunny.3 mph88%30.00 "Hg30 mi
9:00 AM50 °FLight rain. Partly sunny.No wind94%30.01 "Hg20 mi
8:00 AM52 °FSprinkles. Broken clouds.No wind88%29.99 "Hg15 mi
7:00 AM48 °FPassing clouds.3 mph94%29.98 "Hg30 mi
6:00 AM46 °FPartly cloudy.2 mph93%29.97 "Hg30 mi
5:00 AM46 °FPassing clouds.2 mph93%29.97 "Hg30 mi
4:00 AM45 °FPassing clouds.3 mph100%29.96 "Hg20 mi
3:00 AM50 °FPassing clouds.3 mph88%29.95 "Hg20 mi
2:00 AM46 °FPassing clouds.3 mph93%29.94 "Hg20 mi
1:00 AM50 °FPassing clouds.3 mph88%29.93 "Hg30 mi
12:00 AM52 °FPassing clouds.7 mph82%29.93 "Hg30 mi
11:00 PM
Wed, Sep 2
54 °FPassing clouds.7 mph77%29.93 "Hg30 mi
10:00 PM52 °FPartly cloudy.5 mph88%29.93 "Hg30 mi
9:00 PM55 °FPartly cloudy.7 mph72%29.92 "Hg30 mi
8:00 PM55 °FBroken clouds.7 mph82%29.91 "Hg30 mi
7:00 PM57 °FBroken clouds.6 mph82%29.90 "Hg30 mi
6:00 PM59 °FBroken clouds.8 mph77%29.89 "Hg30 mi
5:00 PM57 °FBroken clouds.7 mph82%29.89 "Hg30 mi
4:00 PM55 °FPartly sunny.5 mph82%29.89 "Hg15 mi
3:00 PM54 °FRain showers. Broken clouds.12 mph82%29.90 "Hg8 mi
Weather by CustomWeather, © 2015

See weather overviewHow to use our weather pages